This is the latest recevied weather packets stored in our database for station/object WX4SGA. If no packets are shown the sender has not sent any weather packets the latest 10 day(s).
| Time | Temp. | Humidity | Pressure | Rain* | Wind** | Luminosity | Snow |
|---|---|---|---|---|---|---|---|
| 1777604238 | 22.78° C | 72% | 1013.5 hPa | 0 mm | - | 0 W/m² | - |
| 1777603933 | 22.78° C | 71% | 1013.5 hPa | 0 mm | - | 0 W/m² | - |
| 1777603630 | 22.78° C | 71% | 1013.5 hPa | 0 mm | - | 0 W/m² | - |
| 1777603327 | 23.33° C | 71% | 1013.9 hPa | 0 mm | - | 0 W/m² | - |
| 1777603017 | 23.33° C | 70% | 1013.5 hPa | 0 mm | - | 0 W/m² | - |
| 1777602712 | 22.78° C | 71% | 1013.5 hPa | 0 mm | - | 0 W/m² | - |
| 1777602407 | 23.33° C | 71% | 1013.2 hPa | 0 mm | - | 0 W/m² | - |
| 1777602104 | 23.33° C | 70% | 1013.2 hPa | 0 mm | - | 0 W/m² | - |
| 1777601799 | 23.33° C | 70% | 1012.9 hPa | 0 mm | - | 0 W/m² | - |
| 1777601494 | 23.89° C | 69% | 1013.2 hPa | 0 mm | - | 0 W/m² | - |
| 1777601190 | 23.89° C | 69% | 1013.2 hPa | 0 mm | - | 0 W/m² | - |
| 1777600888 | 23.89° C | 69% | 1013.2 hPa | 0 mm | - | 0 W/m² | - |
| 1777600583 | 23.89° C | 68% | 1013.2 hPa | 0 mm | - | 0 W/m² | - |
| 1777600279 | 23.89° C | 68% | 1012.9 hPa | 0 mm | - | 0 W/m² | - |
| 1777599975 | 23.89° C | 68% | 1012.9 hPa | 0 mm | - | 0 W/m² | - |
| 1777599672 | 24.44° C | 68% | 1012.9 hPa | 0 mm | - | 0 W/m² | - |
| 1777599368 | 24.44° C | 67% | 1012.9 hPa | 0 mm | - | 0 W/m² | - |
| 1777599065 | 24.44° C | 67% | 1012.9 hPa | 0 mm | - | 0 W/m² | - |
| 1777598762 | 24.44° C | 67% | 1012.9 hPa | 0 mm | - | 0 W/m² | - |
| 1777598457 | 24.44° C | 67% | 1012.5 hPa | 0 mm | - | 0 W/m² | - |
| 1777598156 | 24.44° C | 67% | 1012.5 hPa | 0 mm | - | 0 W/m² | - |
| 1777597850 | 24.44° C | 66% | 1012.5 hPa | 0 mm | - | 0 W/m² | - |
| 1777597545 | 25° C | 66% | 1012.5 hPa | 0 mm | - | 0 W/m² | - |
| 1777597241 | 25° C | 66% | 1012.2 hPa | 0 mm | - | 0 W/m² | - |
| 1777596936 | 25° C | 65% | 1012.2 hPa | 0 mm | - | 0 W/m² | - |
* Rain latest hour (hover to see other rain measurements)
** Current wind speed in m/s (hover to see current wind gust speed)